User: anonymous   Login
Location: Unspecified
(0.0000°N, 0.0000°E)
Time: 22:12:48
(UTC+01:00)
Language:

Resurs 1-3 - Orbit

View from above orbital plane
View from above orbital plane
View from above satellite
View from above satellite

Ground track
Ground track

The orbit data is extracted from the following two-line orbital elements,

1 23342U 94074A   14326.52702602  .00000682  00000-0  10056-3 0  3566
2 23342 098.1624 338.9512 0000994 130.1911 345.0440 14.78598052 79189
Epoch (UTC): 22 November 2014 12:38:55
Eccentricity: 0.0000994
inclination: 98.1624°
perigee height: 633 km
apogee height: 634 km
right ascension of ascending node: 338.9512°
argument of perigee: 130.1911°
revolutions per day: 14.78598052
mean anomaly at epoch: 345.0440°
orbit number at epoch: 7918

The dashed part of the orbit path shows where the satellite is in the earth's shadow,  

DLR